Weather History for KBPC - May, 2013

Change the Weather History Date:

Tuesday, May 28, 2013

  Actual Average (KBGD) Record (KBGD)
Temperature  
Mean Temperature 82 °F 72 °F  
Max Temperature 96 °F 84 °F 100 °F (1998)
Min Temperature 68 °F 59 °F 38 °F (1992)
Degree Days  
Heating Degree Days 0 0  
Month to date heating degree days 60  
Since 1 July heating degree days 3763  
Cooling Degree Days 17 7  
Month to date cooling degree days 130  
Year to date cooling degree days 174  
Growing Degree Days 32 (Base 50)    
Moisture  
Dew Point 55 °F    
Average Humidity 45    
Maximum Humidity 83    
Minimum Humidity 15    
Precipitation  
Precipitation 0.00 in 0.14 in 1.42 in (1958)
Month to date precipitation 2.49  
Year to date precipitation 6.65  
Snow  
Snow 0.00 in - T in (1996)
Month to date snowfall  
Since 1 July snowfall  
Snow Depth -    
Sea Level Pressure  
Sea Level Pressure 29.67 in    
Wind  
Wind Speed 21 mph (SSW)    
Max Wind Speed 37 mph    
Max Gust Speed 48 mph    
Visibility 10 miles    
Events      
T = Trace of Precipitation, MM = Missing Value Source: NWS Daily Summary

Daily Weather History Graph

Daily Weather History Graph

Search for Another Location

Airport or City:

Trip Planner

Search our weather history database for the weather conditions in past years. The results will help you decide how hot, cold, wet, or windy it might be!

Date:

Astronomy

May. 28, 2013 Rise Set
Actual Time 6:30 AM CDT 8:52 PM CDT
Civil Twilight 6:01 AM CDT 9:22 PM CDT
Nautical Twilight 5:24 AM CDT 9:58 PM CDT
Astronomical Twilight 4:45 AM CDT 10:38 PM CDT
Moon No Moon Rise 10:17 AM CDT (5/28)
Length of Visible Light 15h 21m
Length of Day
14h 22m
Waning Gibbous, 82% of the Moon is Illuminated
May 28
Waning Gibbous
May 31
Last Quarter
Jun 8
New
Jun 16
First Quarter
Jun 23
Full

Hourly Weather History & Observations

Time (CDT) Temp. Heat Index Dew Point Humidity Pressure Visibility Wind Dir Wind Speed Gust Speed Precip Events Conditions
12:15 AM 80.6 °F 81.8 °F 62.6 °F 54% 29.69 in 10.0 mi South 20.7 mph 33.4 mph N/A   Clear
12:35 AM 78.8 °F - 62.6 °F 57% 29.69 in 10.0 mi South 25.3 mph 31.1 mph N/A   Clear
12:55 AM 78.8 °F - 64.4 °F 61% 29.69 in 10.0 mi SSW 24.2 mph 31.1 mph N/A   Clear
1:15 AM 78.8 °F - 64.4 °F 61% 29.69 in 10.0 mi South 23.0 mph 33.4 mph N/A   Clear
1:35 AM 78.8 °F - 64.4 °F 61% 29.69 in 10.0 mi South 20.7 mph 33.4 mph N/A   Clear
1:55 AM 78.8 °F - 64.4 °F 61% 29.69 in 10.0 mi SSW 24.2 mph 32.2 mph N/A   Clear
2:15 AM 77.0 °F - 64.4 °F 65% 29.69 in 10.0 mi SSW 21.9 mph 32.2 mph N/A   Clear
2:35 AM 77.0 °F - 64.4 °F 65% 29.69 in 10.0 mi SSW 24.2 mph 31.1 mph N/A   Clear
2:55 AM 77.0 °F - 64.4 °F 65% 29.69 in 10.0 mi SSW 21.9 mph 28.8 mph N/A   Clear
3:15 AM 77.0 °F - 62.6 °F 61% 29.68 in 10.0 mi SSW 23.0 mph 27.6 mph N/A   Clear
3:35 AM 75.2 °F - 62.6 °F 65% 29.69 in 10.0 mi SSW 19.6 mph 28.8 mph N/A   Clear
3:55 AM 73.4 °F - 62.6 °F 69% 29.69 in 10.0 mi SSW 16.1 mph - N/A   Clear
4:15 AM 73.4 °F - 62.6 °F 69% 29.69 in 10.0 mi SSW 17.3 mph 24.2 mph N/A   Clear
4:35 AM 71.6 °F - 62.6 °F 73% 29.69 in 10.0 mi SSW 16.1 mph 23.0 mph N/A   Clear
4:55 AM 71.6 °F - 62.6 °F 73% 29.70 in 10.0 mi SW 15.0 mph - N/A   Clear
5:15 AM 71.6 °F - 62.6 °F 73% 29.71 in 10.0 mi SW 12.7 mph - N/A   Clear
5:35 AM 69.8 °F - 62.6 °F 78% 29.71 in 10.0 mi SSW 11.5 mph 17.3 mph N/A   Clear
5:55 AM 69.8 °F - 62.6 °F 78% 29.72 in 10.0 mi SSW 12.7 mph - N/A   Clear
6:15 AM 69.8 °F - 62.6 °F 78% 29.71 in 10.0 mi SSW 16.1 mph - N/A   Clear
6:35 AM 69.8 °F - 62.6 °F 78% 29.71 in 10.0 mi SSW 17.3 mph - N/A   Clear
6:55 AM 68.0 °F - 62.6 °F 83% 29.70 in 10.0 mi SW 18.4 mph 24.2 mph N/A   Clear
7:15 AM 69.8 °F - 62.6 °F 78% 29.71 in 10.0 mi SW 18.4 mph 23.0 mph N/A   Clear
7:35 AM 69.8 °F - 62.6 °F 78% 29.71 in 10.0 mi SW 20.7 mph - N/A   Clear
7:55 AM 71.6 °F - 62.6 °F 73% 29.71 in 10.0 mi SW 23.0 mph 26.5 mph N/A   Clear
8:15 AM 71.6 °F - 62.6 °F 73% 29.71 in 10.0 mi SW 19.6 mph 26.5 mph N/A   Clear
8:35 AM 73.4 °F - 60.8 °F 65% 29.71 in 10.0 mi SW 21.9 mph - N/A   Clear
8:55 AM 73.4 °F - 60.8 °F 65% 29.71 in 10.0 mi WSW 15.0 mph 19.6 mph N/A   Clear
9:15 AM 77.0 °F - 60.8 °F 57% 29.72 in 10.0 mi WSW 13.8 mph - N/A   Clear
9:35 AM 77.0 °F - 60.8 °F 57% 29.72 in 10.0 mi WSW 12.7 mph - N/A   Clear
9:55 AM 78.8 °F - 60.8 °F 54% 29.71 in 10.0 mi SW 12.7 mph - N/A   Clear
10:15 AM 80.6 °F 81.1 °F 59.0 °F 48% 29.71 in 10.0 mi SW 12.7 mph - N/A   Clear
10:35 AM 84.2 °F 83.0 °F 55.4 °F 37% 29.71 in 10.0 mi SW 11.5 mph - N/A   Clear
10:55 AM 86.0 °F 84.2 °F 53.6 °F 33% 29.71 in 10.0 mi WSW 9.2 mph - N/A   Clear
11:15 AM 87.8 °F - 51.8 °F 29% 29.70 in 10.0 mi WSW 3.5 mph - N/A   Clear
11:35 AM 87.8 °F - 46.4 °F 24% 29.70 in 10.0 mi Calm Calm - N/A   Clear
11:55 AM 89.6 °F - 46.4 °F 22% 29.70 in 10.0 mi Calm Calm - N/A   Clear
12:15 PM 93.2 °F - 39.2 °F 15% 29.70 in 10.0 mi SSE 8.1 mph - N/A   Clear
12:35 PM 91.4 °F - 42.8 °F 18% 29.69 in 10.0 mi South 5.8 mph - N/A   Clear
12:55 PM 93.2 °F 90.8 °F 53.6 °F 26% 29.69 in 10.0 mi South 20.7 mph 27.6 mph N/A   Clear
1:15 PM 91.4 °F 89.1 °F 53.6 °F 28% 29.69 in 10.0 mi South 19.6 mph 28.8 mph N/A   Clear
1:35 PM 91.4 °F 89.4 °F 55.4 °F 29% 29.69 in 10.0 mi South 24.2 mph 31.1 mph N/A   Clear
1:55 PM 91.4 °F 89.4 °F 55.4 °F 29% 29.68 in 10.0 mi South 25.3 mph 35.7 mph N/A   Clear
2:15 PM - - - N/A% 29.68 in - SSW 23.0 mph - N/A   Unknown
2:35 PM 93.2 °F 90.8 °F 53.6 °F 26% 29.67 in 10.0 mi South 28.8 mph 33.4 mph N/A   Clear
2:55 PM 93.2 °F 90.8 °F 53.6 °F 26% 29.66 in 10.0 mi South 23.0 mph 32.2 mph N/A   Clear
3:15 PM 95.0 °F - 50.0 °F 22% 29.65 in 10.0 mi SSW 23.0 mph 34.5 mph N/A   Scattered Clouds
3:35 PM 95.0 °F - 50.0 °F 22% 29.63 in 10.0 mi SSW 23.0 mph 34.5 mph N/A   Clear
3:55 PM 95.0 °F - 51.8 °F 23% 29.62 in 10.0 mi South 26.5 mph 40.3 mph N/A   Unknown
4:15 PM 95.0 °F - 50.0 °F 22% 29.60 in 10.0 mi South 32.2 mph 38.0 mph N/A   Clear
4:35 PM 96.8 °F - 48.2 °F 19% 29.60 in 10.0 mi SSW 29.9 mph 38.0 mph N/A   Clear
4:55 PM 95.0 °F - 46.4 °F 19% 29.60 in 10.0 mi South 28.8 mph 40.3 mph N/A   Clear
5:15 PM 91.4 °F - 46.4 °F 21% 29.61 in 10.0 mi SSW 35.7 mph 46.0 mph N/A   Clear
5:35 PM 89.6 °F - 44.6 °F 21% 29.61 in 10.0 mi South 34.5 mph 44.9 mph N/A   Clear
5:55 PM 87.8 °F - 42.8 °F 21% 29.61 in 7.0 mi SSW 35.7 mph 48.3 mph N/A   Scattered Clouds
6:15 PM 87.8 °F - 44.6 °F 22% 29.62 in 10.0 mi South 31.1 mph 42.6 mph N/A   Scattered Clouds
6:35 PM 87.8 °F - 44.6 °F 22% 29.63 in 10.0 mi SW 36.8 mph 43.7 mph N/A   Scattered Clouds
6:55 PM 86.0 °F - 35.6 °F 17% 29.62 in 7.0 mi SSW 29.9 mph 41.4 mph N/A   Scattered Clouds
7:15 PM 86.0 °F - 33.8 °F 15% 29.63 in 5.0 mi SSW 17.3 mph 24.2 mph N/A   Haze
7:35 PM 86.0 °F - 42.8 °F 22% 29.61 in 10.0 mi South 21.9 mph 38.0 mph N/A   Clear
7:55 PM 84.2 °F - 48.2 °F 29% 29.60 in 10.0 mi South 25.3 mph 39.1 mph N/A   Clear
8:15 PM 84.2 °F - 48.2 °F 29% 29.60 in 10.0 mi South 26.5 mph 41.4 mph N/A   Clear
8:35 PM 82.4 °F - 50.0 °F 32% 29.59 in 10.0 mi South 29.9 mph 39.1 mph N/A   Clear
8:55 PM 82.4 °F - 50.0 °F 32% 29.60 in 10.0 mi South 31.1 mph 40.3 mph N/A   Clear
9:15 PM 82.4 °F - 51.8 °F 35% 29.61 in 10.0 mi South 28.8 mph 47.2 mph N/A   Clear
9:35 PM 80.6 °F - 50.0 °F 34% 29.62 in 10.0 mi South 29.9 mph 43.7 mph N/A   Clear
9:55 PM 78.8 °F - 55.4 °F 44% 29.62 in 10.0 mi South 34.5 mph 44.9 mph N/A   Clear
10:15 PM 78.8 °F - 55.4 °F 44% 29.65 in 10.0 mi South 28.8 mph 47.2 mph N/A   Clear
10:35 PM 78.8 °F - 50.0 °F 36% 29.66 in 10.0 mi South 27.6 mph 42.6 mph N/A   Clear
10:55 PM 78.8 °F - 50.0 °F 36% 29.66 in 10.0 mi South 23.0 mph 33.4 mph N/A   Clear
11:15 PM 78.8 °F - 53.6 °F 42% 29.67 in 10.0 mi South 25.3 mph 33.4 mph N/A   Clear
11:35 PM 77.0 °F - 53.6 °F 44% 29.69 in 10.0 mi South 24.2 mph 32.2 mph N/A   Clear
11:55 PM 77.0 °F - 55.4 °F 47% 29.70 in 10.0 mi South 19.6 mph 28.8 mph N/A   Clear